| time (UTC) | temp F | wind direction | speed knots | gust knots | rain 1hr in | rain 24hr in | rain mn in | humidity % | barometer mb |
| 20260506084928 | 40 | 306 | 1.7 | 2.6 | 0.00 | 0.00 | 0.00 | 71 | 1014.7 |
| 20260506084426 | 40 | 296 | 1.7 | 2.6 | 0.00 | 0.00 | 0.00 | 70 | 1014.6 |
| 20260506083921 | 40 | 306 | 0.9 | 1.7 | 0.00 | 0.00 | 0.00 | 68 | 1014.7 |
| 20260506083419 | 41 | 305 | 1.7 | 1.7 | 0.00 | 0.00 | 0.00 | 65 | 1014.4 |
| 20260506082916 | 41 | 299 | 0.9 | 0.9 | 0.00 | 0.00 | 0.00 | 63 | 1014.2 |
| 20260506082414 | 41 | 300 | 0.0 | 0.0 | 0.00 | 0.00 | 0.00 | 64 | 1014.2 |
| 20260506081909 | 41 | 299 | 0.0 | 0.9 | 0.00 | 0.00 | 0.00 | 64 | 1014.2 |
| 20260506081408 | 40 | 299 | 0.0 | 0.9 | 0.00 | 0.00 | 0.00 | 65 | 1014.2 |
| 20260506080904 | 40 | 300 | 0.0 | 0.9 | 0.00 | 0.00 | 0.00 | 65 | 1014.5 |
| 20260506080402 | 40 | 300 | 0.0 | 0.0 | 0.00 | 0.00 | 0.00 | 65 | 1014.4 |
| 20260506073345 | 41 | 300 | 0.9 | 0.9 | 0.00 | 0.00 | 0.00 | 64 | 1014.4 |
| 20260506072842 | 40 | 301 | 0.0 | 0.0 | 0.00 | 0.00 | 0.00 | 65 | 1014.2 |
| 20260506072340 | 40 | 301 | 0.0 | 0.0 | 0.00 | 0.00 | 0.00 | 66 | 1014.4 |
| 20260506071837 | 40 | 301 | 0.0 | 0.0 | 0.00 | 0.00 | 0.00 | 66 | 1014.2 |
| 20260506071335 | 40 | 301 | 0.0 | 0.0 | 0.00 | 0.00 | 0.00 | 66 | 1014.3 |
| 20260506070832 | 41 | 301 | 0.0 | 0.0 | 0.00 | 0.00 | 0.00 | 65 | 1014.4 |
| 20260506070329 | 41 | 301 | 0.0 | 0.0 | 0.00 | 0.00 | 0.00 | 65 | 1014.2 |
| 20260506062306 | 43 | 308 | 0.9 | 0.9 | 0.00 | 0.00 | 0.00 | 62 | 1014.6 |
| 20260506061802 | 44 | 302 | 0.9 | 2.6 | 0.00 | 0.00 | 0.00 | 59 | 1014.6 |
| 20260506061259 | 44 | 323 | 1.7 | 1.7 | 0.00 | 0.00 | 0.00 | 57 | 1014.5 |
| 20260506060757 | 44 | 335 | 0.0 | 0.9 | 0.00 | 0.00 | 0.00 | 58 | 1014.6 |
| 20260506060255 | 44 | 335 | 0.9 | 0.9 | 0.00 | 0.00 | 0.00 | 58 | 1014.4 |
| 20260506051226 | 46 | 336 | 0.9 | 1.7 | 0.00 | 0.00 | 0.00 | 50 | 1013.5 |
| 20260506050724 | 46 | 336 | 0.9 | 1.7 | 0.00 | 0.00 | 0.00 | 49 | 1013.5 |
| 20260506050221 | 46 | 342 | 1.7 | 2.6 | 0.00 | 0.00 | 0.00 | 49 | 1013.3 |
| 20260506044707 | 47 | 335 | 0.0 | 1.7 | 0.00 | 0.00 | 0.00 | 49 | 1013.1 |
| 20260506044203 | 47 | 336 | 1.7 | 1.7 | 0.00 | 0.00 | 0.00 | 49 | 1013.2 |
| 20260506043701 | 48 | 354 | 1.7 | 2.6 | 0.00 | 0.00 | 0.00 | 47 | 1013.4 |
| 20260506043158 | 48 | 343 | 2.6 | 2.6 | 0.00 | 0.00 | 0.00 | 46 | 1013.3 |
| 20260506042657 | 48 | 328 | 0.0 | 1.7 | 0.00 | 0.00 | 0.00 | 48 | 1013.3 |
| 20260506042155 | 48 | 321 | 0.9 | 1.7 | 0.00 | 0.00 | 0.00 | 47 | 1013.3 |
| 20260506041653 | 49 | 346 | 0.9 | 4.3 | 0.00 | 0.00 | 0.00 | 46 | 1013.1 |
| 20260506041150 | 49 | 345 | 3.5 | 6.1 | 0.00 | 0.00 | 0.00 | 45 | 1013.1 |
| 20260506040648 | 49 | 337 | 2.6 | 6.1 | 0.00 | 0.00 | 0.00 | 45 | 1013.2 |
| 20260506040144 | 49 | 4 | 3.5 | 5.2 | 0.00 | 0.00 | 0.00 | 44 | 1012.7 |
| 20260506035641 | 50 | 15 | 4.3 | 7.0 | 0.00 | 0.00 | 0.00 | 44 | 1012.9 |
| 20260506035137 | 50 | 335 | 7.8 | 11.3 | 0.00 | 0.00 | 0.00 | 43 | 1013.0 |
| 20260506034635 | 50 | 17 | 2.6 | 5.2 | 0.00 | 0.00 | 0.00 | 44 | 1013.0 |
| 20260506034132 | 50 | 318 | 2.6 | 6.1 | 0.00 | 0.00 | 0.00 | 43 | 1013.1 |
| 20260506033629 | 50 | 23 | 3.5 | 5.2 | 0.00 | 0.00 | 0.00 | 45 | 1012.8 |
| 20260506033126 | 50 | 19 | 3.5 | 7.8 | 0.00 | 0.00 | 0.00 | 44 | 1012.9 |
| 20260506032623 | 50 | 345 | 3.5 | 6.1 | 0.00 | 0.00 | 0.00 | 44 | 1012.7 |
| 20260506032120 | 50 | 357 | 2.6 | 5.2 | 0.00 | 0.00 | 0.00 | 45 | 1012.7 |
| 20260506031617 | 51 | 347 | 2.6 | 7.8 | 0.00 | 0.00 | 0.00 | 45 | 1012.7 |
| 20260506031114 | 50 | 359 | 4.3 | 6.1 | 0.00 | 0.00 | 0.00 | 44 | 1012.6 |
| 20260506030613 | 50 | 273 | 1.7 | 6.1 | 0.00 | 0.00 | 0.00 | 44 | 1012.6 |
| 20260506030109 | 51 | 307 | 3.5 | 5.2 | 0.00 | 0.00 | 0.00 | 43 | 1012.7 |
| 20260506025606 | 51 | 300 | 1.7 | 6.1 | 0.00 | 0.00 | 0.00 | 43 | 1012.4 |
| 20260506025102 | 51 | 293 | 2.6 | 4.3 | 0.00 | 0.00 | 0.00 | 43 | 1012.4 |
| 20260506024600 | 51 | 269 | 3.5 | 6.1 | 0.00 | 0.00 | 0.00 | 42 | 1012.3 |
| 20260506024056 | 52 | 302 | 1.7 | 4.3 | 0.00 | 0.00 | 0.00 | 41 | 1012.2 |
| 20260506023552 | 52 | 310 | 0.9 | 5.2 | 0.00 | 0.00 | 0.00 | 42 | 1012.1 |
| 20260506023050 | 52 | 334 | 1.7 | 1.7 | 0.00 | 0.00 | 0.00 | 41 | 1012.1 |
| 20260506022547 | 52 | 306 | 3.5 | 5.2 | 0.00 | 0.00 | 0.00 | 40 | 1012.0 |
| 20260506022044 | 52 | 299 | 0.0 | 2.6 | 0.00 | 0.00 | 0.00 | 40 | 1011.9 |
| 20260506021541 | 53 | 296 | 2.6 | 6.1 | 0.00 | 0.00 | 0.00 | 39 | 1012.0 |
| 20260506021039 | 53 | 307 | 3.5 | 5.2 | 0.00 | 0.00 | 0.00 | 39 | 1011.9 |
| 20260506020536 | 53 | 308 | 3.5 | 5.2 | 0.00 | 0.00 | 0.00 | 39 | 1011.9 |
| 20260506020033 | 53 | 312 | 0.9 | 7.0 | 0.00 | 0.00 | 0.00 | 39 | 1011.8 |
| 20260506015531 | 53 | 286 | 2.6 | 5.2 | 0.00 | 0.00 | 0.00 | 39 | 1011.9 |
| 20260506015027 | 53 | 314 | 4.3 | 5.2 | 0.00 | 0.00 | 0.00 | 39 | 1011.7 |
| 20260506014525 | 53 | 313 | 2.6 | 5.2 | 0.00 | 0.00 | 0.00 | 39 | 1011.8 |
| 20260506014021 | 53 | 305 | 5.2 | 7.0 | 0.00 | 0.00 | 0.00 | 39 | 1011.7 |
| 20260506013519 | 53 | 325 | 1.7 | 6.1 | 0.00 | 0.00 | 0.00 | 39 | 1011.7 |
| 20260506013016 | 54 | 313 | 4.3 | 5.2 | 0.00 | 0.00 | 0.00 | 39 | 1011.6 |
| 20260506012512 | 54 | 295 | 1.7 | 7.0 | 0.00 | 0.00 | 0.00 | 39 | 1011.6 |
| 20260506012009 | 54 | 319 | 4.3 | 13.0 | 0.00 | 0.00 | 0.00 | 38 | 1011.7 |
| 20260506011506 | 54 | 303 | 2.6 | 6.1 | 0.00 | 0.00 | 0.00 | 39 | 1011.6 |
| 20260506011002 | 54 | 331 | 2.6 | 6.1 | 0.00 | 0.00 | 0.00 | 38 | 1011.6 |
| 20260506010502 | 54 | 301 | 5.2 | 8.7 | 0.00 | 0.00 | 0.00 | 38 | 1011.5 |
| 20260506005957 | 54 | 277 | 6.1 | 8.7 | 0.00 | 0.00 | 0.00 | 37 | 1011.4 |
| 20260506005455 | 55 | 258 | 4.3 | 6.1 | 0.00 | 0.00 | 0.00 | 38 | 1011.3 |
| 20260506004950 | 55 | 31 | 5.2 | 7.0 | 0.00 | 0.00 | 0.00 | 37 | 1011.2 |
| 20260506004448 | 55 | 266 | 3.5 | 9.6 | 0.00 | 0.00 | 0.00 | 39 | 1011.2 |
| 20260506003944 | 55 | 313 | 6.1 | 8.7 | 0.00 | 0.00 | 0.00 | 39 | 1010.9 |
| 20260506003440 | 55 | 300 | 0.0 | 1.7 | 0.00 | 0.00 | 0.00 | 39 | 1010.9 |
| 20260506002931 | 55 | 279 | 5.2 | 7.0 | 0.00 | 0.00 | 0.00 | 39 | 1010.8 |
| 20260506002428 | 55 | 278 | 4.3 | 6.1 | 0.00 | 0.00 | 0.00 | 37 | 1010.8 |
| 20260506001923 | 55 | 315 | 4.3 | 7.0 | 0.00 | 0.00 | 0.00 | 37 | 1010.9 |
| 20260506001421 | 56 | 304 | 3.5 | 5.2 | 0.00 | 0.00 | 0.00 | 38 | 1010.8 |
| 20260506000918 | 56 | 282 | 2.6 | 4.3 | 0.00 | 0.00 | 0.00 | 38 | 1010.7 |
| 20260506000416 | 56 | 335 | 5.2 | 7.8 | 0.00 | 0.00 | 0.00 | 38 | 1010.7 |
| 20260505235912 | 56 | 305 | 6.1 | 12.2 | 0.00 | 0.00 | 0.00 | 37 | 1010.8 |
| 20260505235410 | 56 | 314 | 2.6 | 6.1 | 0.00 | 0.00 | 0.00 | 37 | 1010.9 |
| 20260505234907 | 56 | 338 | 5.2 | 8.7 | 0.00 | 0.00 | 0.00 | 36 | 1010.7 |
| 20260505234404 | 56 | 308 | 4.3 | 7.0 | 0.00 | 0.00 | 0.00 | 35 | 1010.6 |
| 20260505233901 | 56 | 253 | 4.3 | 8.7 | 0.00 | 0.00 | 0.00 | 35 | 1010.6 |
| 20260505233359 | 56 | 305 | 5.2 | 7.0 | 0.00 | 0.00 | 0.00 | 35 | 1010.7 |
| 20260505232856 | 57 | 321 | 2.6 | 7.8 | 0.00 | 0.00 | 0.00 | 36 | 1010.6 |
| 20260505232354 | 57 | 358 | 4.3 | 7.8 | 0.00 | 0.00 | 0.00 | 36 | 1010.5 |
| 20260505231850 | 57 | 316 | 7.0 | 9.6 | 0.00 | 0.00 | 0.00 | 36 | 1010.4 |
| 20260505231348 | 57 | 356 | 2.6 | 7.8 | 0.00 | 0.00 | 0.00 | 36 | 1010.5 |
| 20260505230846 | 57 | 311 | 0.9 | 7.8 | 0.00 | 0.00 | 0.00 | 35 | 1010.5 |
| 20260505230343 | 57 | 282 | 7.0 | 13.9 | 0.00 | 0.00 | 0.00 | 34 | 1010.4 |
| 20260505225839 | 57 | 302 | 5.2 | 11.3 | 0.00 | 0.00 | 0.00 | 35 | 1010.3 |
| 20260505225336 | 57 | 341 | 2.6 | 11.3 | 0.00 | 0.00 | 0.00 | 35 | 1010.2 |
| 20260505224830 | 57 | 326 | 7.0 | 9.6 | 0.00 | 0.00 | 0.00 | 35 | 1010.4 |
| 20260505224329 | 57 | 16 | 4.3 | 13.0 | 0.00 | 0.00 | 0.00 | 35 | 1010.2 |
| 20260505223826 | 58 | 10 | 3.5 | 13.0 | 0.00 | 0.00 | 0.00 | 36 | 1010.4 |
| 20260505223323 | 58 | 336 | 3.5 | 12.2 | 0.00 | 0.00 | 0.00 | 35 | 1010.3 |
| 20260505222818 | 58 | 20 | 4.3 | 9.6 | 0.00 | 0.00 | 0.00 | 34 | 1010.3 |
| 20260505222315 | 59 | 338 | 7.0 | 11.3 | 0.00 | 0.00 | 0.00 | 34 | 1010.2 |
| 20260505221812 | 59 | 6 | 4.3 | 7.8 | 0.00 | 0.00 | 0.00 | 36 | 1010.2 |
| 20260505221308 | 59 | 329 | 7.8 | 11.3 | 0.00 | 0.00 | 0.00 | 34 | 1009.9 |
| 20260505220806 | 59 | 283 | 6.1 | 13.0 | 0.00 | 0.00 | 0.00 | 36 | 1010.0 |
| 20260505220303 | 59 | 292 | 3.5 | 7.0 | 0.00 | 0.00 | 0.00 | 41 | 1009.8 |
| 20260505215801 | 58 | 256 | 6.1 | 7.8 | 0.00 | 0.00 | 0.00 | 40 | 1009.7 |
| 20260505215258 | 58 | 221 | 5.2 | 7.0 | 0.00 | 0.00 | 0.00 | 43 | 1010.0 |
| 20260505214756 | 58 | 249 | 4.3 | 6.1 | 0.00 | 0.00 | 0.00 | 41 | 1010.2 |
| 20260505214254 | 58 | 243 | 3.5 | 5.2 | 0.00 | 0.00 | 0.00 | 41 | 1009.9 |
| 20260505213751 | 58 | 284 | 5.2 | 6.1 | 0.00 | 0.00 | 0.00 | 40 | 1010.2 |
| 20260505213248 | 58 | 252 | 2.6 | 7.0 | 0.00 | 0.00 | 0.00 | 40 | 1010.3 |
| 20260505212744 | 58 | 217 | 5.2 | 6.1 | 0.00 | 0.00 | 0.00 | 43 | 1010.3 |
| 20260505212242 | 58 | 278 | 0.9 | 7.0 | 0.00 | 0.00 | 0.00 | 42 | 1010.3 |
| 20260505211738 | 58 | 246 | 3.5 | 9.6 | 0.00 | 0.00 | 0.00 | 41 | 1010.4 |
| 20260505211236 | 59 | 262 | 1.7 | 2.6 | 0.00 | 0.00 | 0.00 | 43 | 1010.4 |
| 20260505210732 | 58 | 281 | 0.9 | 4.3 | 0.00 | 0.00 | 0.00 | 43 | 1010.4 |
| 20260505210229 | 58 | 262 | 2.6 | 4.3 | 0.00 | 0.00 | 0.00 | 41 | 1010.4 |
| 20260505205726 | 57 | 298 | 0.9 | 1.7 | 0.00 | 0.00 | 0.00 | 42 | 1010.6 |
| 20260505205224 | 58 | 295 | 2.6 | 5.2 | 0.00 | 0.00 | 0.00 | 41 | 1010.5 |
| 20260505204720 | 58 | 208 | 3.5 | 5.2 | 0.00 | 0.00 | 0.00 | 42 | 1010.7 |
| 20260505204219 | 57 | 262 | 1.7 | 5.2 | 0.00 | 0.00 | 0.00 | 44 | 1010.8 |
| 20260505203715 | 57 | 263 | 4.3 | 5.2 | 0.00 | 0.00 | 0.00 | 41 | 1011.0 |
| 20260505203212 | 57 | 226 | 6.1 | 7.8 | 0.00 | 0.00 | 0.00 | 41 | 1010.9 |
| 20260505202708 | 57 | 297 | 1.7 | 1.7 | 0.00 | 0.00 | 0.00 | 43 | 1011.2 |
| 20260505202204 | 56 | 280 | 3.5 | 7.0 | 0.00 | 0.00 | 0.00 | 42 | 1011.1 |
| 20260505201701 | 57 | 313 | 1.7 | 6.1 | 0.00 | 0.00 | 0.00 | 42 | 1011.2 |
| 20260505201159 | 57 | 287 | 0.0 | 4.3 | 0.00 | 0.00 | 0.00 | 41 | 1011.2 |
| 20260505200657 | 57 | 263 | 0.9 | 4.3 | 0.00 | 0.00 | 0.00 | 42 | 1011.2 |
| 20260505200153 | 57 | 294 | 7.0 | 9.6 | 0.00 | 0.00 | 0.00 | 42 | 1011.4 |
| 20260505195649 | 58 | 282 | 2.6 | 6.1 | 0.00 | 0.00 | 0.00 | 43 | 1011.3 |
| 20260505195147 | 57 | 259 | 2.6 | 6.1 | 0.00 | 0.00 | 0.00 | 41 | 1011.3 |
| 20260505194644 | 57 | 286 | 5.2 | 7.8 | 0.00 | 0.00 | 0.00 | 42 | 1011.6 |
| 20260505194140 | 57 | 187 | 4.3 | 7.0 | 0.00 | 0.00 | 0.00 | 41 | 1011.7 |
| 20260505193636 | 57 | 291 | 6.1 | 7.8 | 0.00 | 0.00 | 0.00 | 41 | 1011.6 |
| 20260505193133 | 57 | 294 | 1.7 | 4.3 | 0.00 | 0.00 | 0.00 | 43 | 1011.7 |
| 20260505192632 | 58 | 317 | 4.3 | 7.0 | 0.00 | 0.00 | 0.00 | 41 | 1011.6 |
| 20260505192129 | 57 | 277 | 0.0 | 6.1 | 0.00 | 0.00 | 0.00 | 44 | 1011.6 |
| 20260505191628 | 57 | 250 | 3.5 | 6.1 | 0.00 | 0.00 | 0.00 | 43 | 1011.6 |
| 20260505191125 | 57 | 328 | 5.2 | 7.8 | 0.00 | 0.00 | 0.00 | 43 | 1011.6 |
| 20260505190621 | 58 | 296 | 4.3 | 7.8 | 0.00 | 0.00 | 0.00 | 41 | 1011.8 |
| 20260505190116 | 57 | 332 | 2.6 | 7.0 | 0.00 | 0.00 | 0.00 | 42 | 1011.6 |
| 20260505185613 | 58 | 323 | 1.7 | 2.6 | 0.00 | 0.00 | 0.00 | 42 | 1011.6 |
| 20260505185109 | 58 | 224 | 4.3 | 6.1 | 0.00 | 0.00 | 0.00 | 40 | 1011.7 |
| 20260505184606 | 57 | 224 | 1.7 | 8.7 | 0.00 | 0.00 | 0.00 | 42 | 1011.7 |
| 20260505184103 | 57 | 297 | 1.7 | 4.3 | 0.00 | 0.00 | 0.00 | 45 | 1011.8 |
| 20260505183559 | 57 | 7 | 5.2 | 7.8 | 0.00 | 0.00 | 0.00 | 45 | 1011.9 |
| 20260505183057 | 56 | 44 | 4.3 | 5.2 | 0.00 | 0.00 | 0.00 | 44 | 1011.8 |
| 20260505182553 | 56 | 337 | 0.9 | 4.3 | 0.00 | 0.00 | 0.00 | 48 | 1011.8 |
| 20260505182050 | 56 | 357 | 6.1 | 7.8 | 0.00 | 0.00 | 0.00 | 45 | 1011.8 |
| 20260505181547 | 56 | 321 | 1.7 | 4.3 | 0.00 | 0.00 | 0.00 | 47 | 1012.0 |
| 20260505181044 | 56 | 352 | 7.0 | 7.8 | 0.00 | 0.00 | 0.00 | 46 | 1011.9 |
| 20260505180539 | 57 | 316 | 2.6 | 2.6 | 0.00 | 0.00 | 0.00 | 47 | 1012.0 |
| 20260505180038 | 56 | 277 | 0.9 | 2.6 | 0.00 | 0.00 | 0.00 | 49 | 1012.1 |
| 20260505175537 | 56 | 251 | 2.6 | 4.3 | 0.00 | 0.00 | 0.00 | 48 | 1012.2 |
| 20260505175035 | 55 | 282 | 0.9 | 4.3 | 0.00 | 0.00 | 0.00 | 48 | 1012.2 |
| 20260505174532 | 55 | 318 | 3.5 | 6.1 | 0.00 | 0.00 | 0.00 | 49 | 1012.5 |
| 20260505174028 | 56 | 304 | 2.6 | 5.2 | 0.00 | 0.00 | 0.00 | 48 | 1012.1 |
| 20260505173525 | 57 | 280 | 3.5 | 6.1 | 0.00 | 0.00 | 0.00 | 48 | 1012.3 |
| 20260505173021 | 56 | 165 | 2.6 | 4.3 | 0.00 | 0.00 | 0.00 | 50 | 1012.1 |
| 20260505172519 | 54 | 266 | 3.5 | 7.8 | 0.00 | 0.00 | 0.00 | 49 | 1012.3 |
| 20260505172014 | 54 | 359 | 3.5 | 6.1 | 0.00 | 0.00 | 0.00 | 50 | 1012.4 |
| 20260505171505 | 55 | 306 | 4.3 | 7.0 | 0.00 | 0.00 | 0.00 | 48 | 1012.4 |
| 20260505171002 | 55 | 287 | 0.9 | 2.6 | 0.00 | 0.00 | 0.00 | 50 | 1012.4 |
| 20260505170459 | 55 | 238 | 6.1 | 7.0 | 0.00 | 0.00 | 0.00 | 46 | 1012.4 |
| 20260505165954 | 55 | 271 | 2.6 | 2.6 | 0.00 | 0.00 | 0.00 | 47 | 1012.4 |
| 20260505165450 | 54 | 342 | 4.3 | 6.1 | 0.00 | 0.00 | 0.00 | 48 | 1012.7 |
| 20260505164946 | 54 | 337 | 0.0 | 1.7 | 0.00 | 0.00 | 0.00 | 53 | 1012.7 |
| 20260505164442 | 54 | 345 | 4.3 | 5.2 | 0.00 | 0.00 | 0.00 | 51 | 1012.5 |
| 20260505163940 | 53 | 317 | 0.9 | 7.0 | 0.00 | 0.00 | 0.00 | 51 | 1012.7 |
| 20260505163439 | 53 | 356 | 3.5 | 7.0 | 0.00 | 0.00 | 0.00 | 50 | 1012.3 |
| 20260505162938 | 53 | 297 | 4.3 | 5.2 | 0.00 | 0.00 | 0.00 | 49 | 1012.4 |
| 20260505162433 | 53 | 51 | 3.5 | 5.2 | 0.00 | 0.00 | 0.00 | 50 | 1012.1 |
| 20260505161930 | 55 | 331 | 4.3 | 6.1 | 0.00 | 0.00 | 0.00 | 50 | 1012.3 |
| 20260505161427 | 54 | 243 | 1.7 | 1.7 | 0.00 | 0.00 | 0.00 | 49 | 1012.2 |
| 20260505160924 | 54 | 351 | 3.5 | 5.2 | 0.00 | 0.00 | 0.00 | 49 | 1012.3 |
| 20260505160422 | 53 | 323 | 1.7 | 2.6 | 0.00 | 0.00 | 0.00 | 50 | 1012.2 |
| 20260505153356 | 53 | 288 | 0.9 | 1.7 | 0.00 | 0.00 | 0.00 | 55 | 1012.1 |
| 20260505152852 | 52 | 305 | 0.9 | 1.7 | 0.00 | 0.00 | 0.00 | 55 | 1012.0 |
| 20260505152349 | 52 | 341 | 2.6 | 4.3 | 0.00 | 0.00 | 0.00 | 56 | 1012.0 |
| 20260505151844 | 53 | 0 | 0.9 | 1.7 | 0.00 | 0.00 | 0.00 | 57 | 1011.9 |
| 20260505151340 | 53 | 297 | 1.7 | 1.7 | 0.00 | 0.00 | 0.00 | 55 | 1012.1 |
| 20260505150831 | 52 | 288 | 0.0 | 0.9 | 0.00 | 0.00 | 0.00 | 56 | 1012.0 |
| 20260505150328 | 53 | 308 | 2.6 | 4.3 | 0.00 | 0.00 | 0.00 | 57 | 1012.0 |
| 20260505140241 | 50 | 256 | 0.9 | 1.7 | 0.00 | 0.00 | 0.00 | 63 | 1011.5 |
| 20260505130205 | 51 | 256 | 0.0 | 0.0 | 0.00 | 0.00 | 0.00 | 67 | 1010.7 |
| 20260505124655 | 50 | 142 | 1.7 | 1.7 | 0.00 | 0.00 | 0.00 | 73 | 1010.2 |
| 20260505124151 | 49 | 226 | 0.0 | 0.9 | 0.00 | 0.00 | 0.00 | 76 | 1010.4 |
| 20260505123647 | 48 | 226 | 0.0 | 0.0 | 0.00 | 0.00 | 0.00 | 81 | 1010.4 |
| 20260505123145 | 48 | 226 | 0.0 | 0.9 | 0.00 | 0.00 | 0.00 | 82 | 1010.5 |
| 20260505122641 | 48 | 226 | 0.0 | 0.9 | 0.00 | 0.00 | 0.00 | 85 | 1010.3 |
| 20260505122138 | 47 | 183 | 0.0 | 0.9 | 0.00 | 0.00 | 0.00 | 86 | 1010.8 |
| 20260505121634 | 46 | 128 | 0.0 | 0.0 | 0.00 | 0.00 | 0.00 | 88 | 1010.8 |
| 20260505121126 | 46 | 128 | 0.0 | 0.0 | 0.00 | 0.00 | 0.00 | 88 | 1010.7 |
| 20260505120621 | 46 | 257 | 0.0 | 0.0 | 0.00 | 0.00 | 0.00 | 88 | 1011.2 |
| 20260505120117 | 46 | 257 | 0.0 | 0.0 | 0.00 | 0.00 | 0.00 | 89 | 1011.1 |
| 20260505115612 | 45 | 257 | 0.0 | 0.0 | 0.00 | 0.00 | 0.00 | 90 | 1011.1 |
| 20260505115110 | 45 | 258 | 0.0 | 0.0 | 0.00 | 0.00 | 0.00 | 90 | 1011.0 |
| 20260505114607 | 45 | 258 | 0.0 | 0.0 | 0.00 | 0.00 | 0.00 | 90 | 1011.1 |
| 20260505114103 | 45 | 258 | 0.9 | 0.9 | 0.00 | 0.00 | 0.00 | 90 | 1011.0 |
| 20260505113559 | 45 | 258 | 0.0 | 0.0 | 0.00 | 0.00 | 0.00 | 90 | 1010.9 |
| 20260505113056 | 45 | 258 | 0.0 | 0.9 | 0.00 | 0.00 | 0.00 | 90 | 1011.0 |
| 20260505112552 | 45 | 258 | 0.0 | 0.0 | 0.00 | 0.00 | 0.00 | 89 | 1010.8 |
| 20260505112050 | 45 | 257 | 0.0 | 0.9 | 0.00 | 0.00 | 0.00 | 90 | 1011.2 |
| 20260505111544 | 45 | 257 | 0.9 | 1.7 | 0.00 | 0.00 | 0.00 | 89 | 1011.0 |
| 20260505111040 | 45 | 258 | 0.9 | 0.9 | 0.00 | 0.00 | 0.00 | 88 | 1011.2 |
| 20260505110537 | 45 | 258 | 0.9 | 0.9 | 0.00 | 0.00 | 0.00 | 88 | 1011.1 |
| 20260505102010 | 46 | 258 | 0.0 | 0.9 | 0.00 | 0.00 | 0.00 | 86 | 1010.3 |
| 20260505101508 | 46 | 258 | 0.0 | 0.0 | 0.00 | 0.00 | 0.00 | 85 | 1009.9 |
| 20260505101004 | 47 | 258 | 0.0 | 0.0 | 0.00 | 0.00 | 0.00 | 84 | 1009.8 |
| 20260505100501 | 47 | 258 | 0.0 | 0.0 | 0.00 | 0.00 | 0.00 | 84 | 1009.6 |
| 20260505095957 | 47 | 258 | 0.0 | 0.0 | 0.00 | 0.00 | 0.00 | 84 | 1009.5 |
| 20260505095454 | 47 | 258 | 0.0 | 0.9 | 0.00 | 0.00 | 0.00 | 85 | 1009.9 |
| 20260505094950 | 47 | 258 | 0.0 | 0.0 | 0.00 | 0.00 | 0.00 | 84 | 1009.9 |
| 20260505094447 | 47 | 258 | 0.0 | 0.0 | 0.00 | 0.00 | 0.00 | 83 | 1009.9 |
| 20260505093943 | 48 | 258 | 0.0 | 0.9 | 0.00 | 0.00 | 0.00 | 83 | 1010.0 |
| 20260505093440 | 47 | 258 | 0.0 | 0.0 | 0.00 | 0.00 | 0.00 | 82 | 1009.5 |
| 20260505092937 | 48 | 258 | 0.0 | 0.0 | 0.00 | 0.00 | 0.00 | 83 | 1009.4 |
| 20260505092435 | 48 | 256 | 0.0 | 1.7 | 0.00 | 0.00 | 0.00 | 82 | 1009.1 |
| 20260505091932 | 48 | 235 | 1.7 | 1.7 | 0.00 | 0.00 | 0.00 | 82 | 1009.1 |
| 20260505091430 | 48 | 290 | 0.9 | 0.9 | 0.00 | 0.00 | 0.00 | 82 | 1008.9 |
| 20260505090928 | 48 | 291 | 0.0 | 0.0 | 0.00 | 0.00 | 0.00 | 82 | 1008.9 |
| 20260505090426 | 47 | 291 | 0.0 | 0.9 | 0.00 | 0.00 | 0.00 | 82 | 1008.8 |
| 20260505085923 | 48 | 291 | 0.0 | 0.9 | 0.00 | 0.00 | 0.00 | 83 | 1008.3 |
| 20260505085420 | 48 | 286 | 0.9 | 0.9 | 0.00 | 0.00 | 0.00 | 83 | 1008.7 |